Volver al catálogo

THOR ABLESTAR DEB

ActivoLEO
NORAD 13514·DEBRIS·🇺🇸 United States

Lanzado Jun 29, 1961 desde Cape Canaveral Space Force Station

Loading…

Próximos Pases (próximas 24 horas)

TLE

ActualizadoSource: Space-Track

Época: Sep 14, 2026, 04:39 UTC

1 13514U 61015KX  26257.19434208  .00000193  00000-0  33600-3 0  9998
2 13514  66.7151 181.4481 0244739 330.9488  96.9066 13.51370830276599

Sigue THOR ABLESTAR DEB en tiempo real con AllMySat

Download on the App Store